This demonstration page uses our WeatherBlox Daily Observations layout. Learn more.

Left ArrowRight Arrow

36.17497, -115.13722

Hourly Observations for March 12, 2019

Temp ( °F °C ) Dew Point ( °F °C ) Humidity (%) Winds ( mph kmh ) Pressure ( in mb ) Visibility ( mi km ) Precip ( " mm )
12:53 am 00:53 Cloudy with Light Rain 51 10.6 46 7.8 83 83 NE 7 11 29.90 1013 10 16 0.02 0.51
1:53 am 01:53 Cloudy with Light Rain 50 10 47 8.3 89 89 NW 7 11 29.90 1012 10 16 0.01 0.25
2:53 am 02:53 Cloudy with Light Rain 51 10.6 47 8.3 86 86 Calm 29.87 1012 10 16 0.00 0.03
3:53 am 03:53 Cloudy with Light Rain 50 10 47 8.3 89 89 NW 6 9 29.84 1010 10 16 0.01 0.25
4:53 am 04:53 Cloudy 51 10.6 47 8.3 86 86 NW 5 7 29.82 1010 10 16 0.00 0.03
5:53 am 05:53 Cloudy 51 10.6 46 7.8 83 83 Calm 29.83 1010 10 16 0.00 0.00
6:53 am 06:53 Mostly Clear 50 10 45 7.2 83 83 NNW 8 13 29.80 1009 10 16 0.00 0.03
7:53 am 07:53 Mostly Cloudy 51 10.6 45 7.2 80 80 NNW 12 19 29.80 1009 10 16 0.00 0.00
8:53 am 08:53 Cloudy 52 11.1 44 6.7 75 75 NNW 12 19 29.80 1009 10 16 0.00 0.00
9:53 am 09:53 Cloudy 55 12.8 43 6.1 64 64 N 13 20 29.79 1009 10 16 0.00 0.00
10:53 am 10:53 Cloudy 57 13.9 41 5 55 55 N 12 19 29.79 1009 10 16 0.00 0.00
11:53 am 11:53 Mostly Cloudy 59 15 41 5 51 51 NNE 6 9 29.77 1008 10 16 0.00 0.00
12:53 pm 12:53 Sunny 59 15 41 5 51 51 VRB 3 6 29.72 1007 10 16 0.00 0.00
1:53 pm 13:53 Mostly Sunny 60 15.6 40 4.4 47 47 VRB 3 6 29.68 1005 10 16 0.00 0.00
2:53 pm 14:53 Sunny 62 16.7 39 3.9 43 43 SSE 12 19 29.64 1004 10 16 0.00 0.00
3:53 pm 15:53 Mostly Cloudy 62 16.7 39 3.9 43 43 S 9 15 29.62 1003 10 16 0.00 0.00
4:53 pm 16:53 Mostly Cloudy 63 17.2 39 3.9 41 41 S 12 19 29.59 1002 10 16 0.00 0.00
5:53 pm 17:53 Mostly Sunny 61 16.1 42 5.6 50 50 ESE 15 24 29.57 1001 10 16 0.00 0.00
6:53 pm 18:53 Partly Cloudy 62 16.7 38 3.3 41 41 SSW 12 19 29.55 1001 10 16 0.00 0.00
7:11 pm 19:11 Mostly Clear 62 16.7 38 3.3 41 41 SSW 10 17 29.47 998 10 16 0.00 0.00
7:53 pm 19:53 Clear 60 15.6 40 4.4 47 47 SSW 13 20 29.54 1000 10 16 0.00 0.00
8:53 pm 20:53 Clear 59 15 35 1.7 41 41 SW 10 17 29.54 1000 10 16 0.00 0.00
9:53 pm 21:53 Mostly Clear 57 13.9 34 1.1 42 42 S 9 15 29.56 1001 10 16 0.00 0.00
10:53 pm 22:53 Mostly Cloudy 56 13.3 28 -2.2 34 34 WSW 9 15 29.58 1002 10 16 0.00 0.00
11:15 pm 23:15 Cloudy with Rain 48 8.9 39 3.9 71 71 NNW 29 46 29.61 1003 9 14 0.01 0.25
11:53 pm 23:53 Cloudy 47 8.3 39 3.9 74 74 NNW 24 39 29.66 1004 10 16 0.02 0.51

Powered by AerisWeather